Stations météo

Publicité
Perpignan, France (7747): Température de l'air & dewpoint: 19.06.2018 15:00:00 - 25.06.2018 15:00:00 (CEST)Perpignan, France (7747): Température de l'air 5cm: 19.06.2018 15:00:00 - 25.06.2018 15:00:00 (CEST)Perpignan, France (7747): Température de l'air -20cm & Température de l'air -100cm: 19.06.2018 15:00:00 - 25.06.2018 15:00:00 (CEST)Perpignan, France (7747): Vitesse du vent & gusts: 19.06.2018 15:00:00 - 25.06.2018 15:00:00 (CEST)Perpignan, France (7747): Direction du vent: 19.06.2018 15:00:00 - 25.06.2018 15:00:00 (CEST)Perpignan, France (7747): reduced air pressure: 19.06.2018 15:00:00 - 25.06.2018 15:00:00 (CEST)Perpignan, France (7747): visibility: 19.06.2018 15:00:00 - 25.06.2018 15:00:00 (CEST)Perpignan, France (7747): Quantités de précipitations: 19.06.2018 15:00:00 - 25.06.2018 15:00:00 (CEST)
Date & Time tt [°C] td [°C] tt 5cm [°C] tt -20cm [°C] tt -100cm [°C] ff [km/h] ff [knt] fx [km/h] fx [knt] dd ppp [hPa] vv [km] rr [mm]
25.06.2018 15:00:00 29,7 14,3 38,3 27,2 23,3 12 7 24 13 E 1015,1 60 0,0
25.06.2018 14:00:00 28,3 14,5 38,0 26,7 23,3 10 6 29 16 E 1015,5 60 0,0
25.06.2018 13:00:00 27,8 14,4 36,6 26,4 23,3 13 7 25 14 E 1015,9 57 0,0
25.06.2018 12:00:00 27,6 14,6 35,6 26,1 23,3 14 7 23 13 E 1016,0 60 0,0
25.06.2018 11:00:00 27,6 13,2 36,4 26,0 23,3 10 5 23 12 NE 1016,0 60 0,0
25.06.2018 10:00:00 25,9 13,1 33,0 26,0 23,3 5 3 13 7 NNE 1016,3 60 0,0
25.06.2018 09:00:00 23,9 12,8 22,3 26,2 23,3 5 3 10 6 W 1016,5 57 0,0
25.06.2018 08:00:00 20,9 13,6 17,7 26,4 23,3 3 2 14 8 WNW 1016,7 58 0,0
25.06.2018 07:00:00 18,2 12,4 15,0 26,7 23,3 11 6 17 9 WSW 1016,7 60 0,0
25.06.2018 06:00:00 17,1 12,4 13,4 26,9 23,3 13 7 16 9 WSW 1016,4 60 0,0
25.06.2018 05:00:00 18,0 11,8 13,7 27,2 23,3 3 2 5 3 SW 1016,5 60 0,0
25.06.2018 04:00:00 19,2 11,2 15,9 27,5 23,2 6 3 16 8 NE 1016,4 60 0,0
25.06.2018 03:00:00 20,4 11,3 16,0 27,7 23,2 5 3 21 11 NW 1016,4 60 0,0
25.06.2018 02:00:00 21,1 11,4 15,2 28,1 23,3 11 6 15 8 WNW 1016,4 60 0,0
25.06.2018 01:00:00 20,0 12,2 15,6 28,3 23,2 3 2 13 7 SW 1016,6 60 0,0
25.06.2018 00:00:00 20,0 12,5 16,4 28,6 23,2 10 5 12 7 WSW 1016,6 60 0,0
24.06.2018 23:00:00 21,3 12,2 17,2 28,8 23,2 0 0 9 5 N 1016,6 60 0,0
24.06.2018 22:00:00 23,6 11,0 19,1 28,9 23,2 3 2 11 6 SSE 1016,0 60 0,0
24.06.2018 21:00:00 25,3 11,5 24,1 29,0 23,2 6 3 16 9 ESE 1015,8 60 0,0
24.06.2018 20:00:00 26,6 11,5 27,6 28,9 23,2 8 4 15 8 SE 1015,4 59 0,0
24.06.2018 19:00:00 26,9 12,2 30,3 28,7 23,2 8 4 16 9 SE 1015,0 50 0,0
24.06.2018 18:00:00 27,2 12,4 31,0 28,3 23,2 11 6 21 11 ESE 1015,5 44 0,0
24.06.2018 17:00:00 26,6 12,6 31,8 27,9 23,2 14 7 26 14 ESE 1015,7 60 0,0
24.06.2018 16:00:00 27,2 13,5 34,3 27,4 23,2 14 8 26 14 ESE 1016,3 39 0,0
24.06.2018 15:00:00 27,3 12,9 35,6 27,0 23,1 16 9 25 14 ESE 1016,4 60 0,0
24.06.2018 14:00:00 27,8 13,0 33,5 26,6 23,1 14 8 26 14 SE 1016,8 60 0,0
24.06.2018 13:00:00 27,5 12,7 34,5 26,2 23,1 14 8 23 13 E 1017,2 60 0,0
24.06.2018 12:00:00 27,7 12,9 34,1 26,0 23,1 13 7 24 13 ESE 1017,3 60 0,0
24.06.2018 11:00:00 27,7 10,4 36,0 25,9 23,1 4 2 11 6 ENE 1017,4 60 0,0
24.06.2018 10:00:00 26,0 11,7 31,5 26,0 23,1 3 2 7 4 NE 1017,8 60 0,0
24.06.2018 09:00:00 23,1 11,2 20,2 26,2 23,1 0 0 5 3 N 1017,9 57 0,0
24.06.2018 08:00:00 18,8 11,8 12,2 26,5 23,1 4 2 10 6 W 1018,0 60 0,0
24.06.2018 07:00:00 15,4 10,4 11,7 26,7 23,1 4 2 6 3 SW 1017,8 60 0,0
24.06.2018 06:00:00 16,6 10,0 11,8 27,1 23,1 5 3 8 4 SE 1017,5 60 0,0
24.06.2018 05:00:00 16,2 10,1 12,5 27,4 23,0 4 2 9 5 W 1017,2 60 0,0
24.06.2018 04:00:00 17,2 10,6 13,8 27,7 23,0 4 2 14 8 W 1017,6 60 0,0
24.06.2018 03:00:00 18,0 10,6 14,6 28,0 23,1 6 4 11 6 WSW 1018,0 60 0,0
24.06.2018 02:00:00 18,1 10,0 15,1 28,3 23,0 6 3 15 8 WNW 1018,2 60 0,0
24.06.2018 01:00:00 18,1 10,0 14,1 28,7 23,0 8 4 13 7 W 1018,4 60 0,0
24.06.2018 00:00:00 19,0 10,5 14,4 28,9 23,0 3 1 6 4 SSW 1018,6 60 0,0
23.06.2018 23:00:00 20,3 11,0 15,4 29,2 23,0 3 1 7 4 W 1018,7 60 0,0
23.06.2018 22:00:00 22,6 10,7 17,4 29,4 23,0 4 2 8 5 W 1018,2 11 0,0
23.06.2018 21:00:00 25,3 9,2 22,2 29,5 23,0 3 2 11 6 SE 1017,9 60 0,0
23.06.2018 20:00:00 26,7 8,2 27,3 29,3 23,0 6 4 16 8 E 1017,6 60 0,0
23.06.2018 19:00:00 27,3 7,7 32,0 29,1 23,0 7 4 18 10 SSE 1017,6 57 0,0
23.06.2018 18:00:00 27,6 6,9 33,2 28,7 22,9 10 6 22 12 E 1017,9 60 0,0
23.06.2018 17:00:00 28,1 7,3 34,8 28,2 22,9 13 7 24 13 E 1018,0 60 0,0
23.06.2018 16:00:00 27,8 6,5 36,4 27,7 22,9 14 8 25 13 E 1018,3 60 0,0
23.06.2018 15:00:00 27,1 7,5 36,7 27,2 22,9 14 8 29 16 E 1018,6 60 0,0
23.06.2018 14:00:00 26,8 7,3 35,8 26,7 22,9 17 9 31 17 ESE 1019,1 60 0,0
23.06.2018 13:00:00 26,4 9,7 33,7 26,3 22,9 18 10 30 16 E 1019,3 60 0,0
23.06.2018 12:00:00 26,0 11,4 32,5 26,1 22,9 16 9 29 16 ESE 1019,3 60 0,0
23.06.2018 11:00:00 26,6 9,9 33,1 26,0 22,9 8 5 18 10 ESE 1019,0 60 0,0
23.06.2018 10:00:00 25,0 9,7 30,3 26,1 22,8 7 4 16 9 E 1019,3 44 0,0
23.06.2018 09:00:00 22,7 11,7 21,3 26,3 22,8 7 4 11 6 E 1019,2 57 0,0
23.06.2018 08:00:00 20,9 12,1 14,7 26,5 22,9 5 3 9 5 SE 1019,1 60 0,0
23.06.2018 07:00:00 17,0 11,5 11,9 26,8 22,8 2 1 8 4 ESE 1018,9 60 0,0
23.06.2018 06:00:00 17,4 10,0 12,3 27,2 22,8 6 3 12 7 E 1018,7 60 0,0
23.06.2018 05:00:00 18,0 9,6 12,6 27,4 22,8 6 4 11 6 W 1018,3 60 0,0
23.06.2018 04:00:00 19,2 9,4 13,5 27,7 22,7 4 2 9 5 WNW 1018,5 60 0,0
23.06.2018 03:00:00 20,1 10,2 15,0 28,1 22,7 7 4 13 7 W 1018,6 60 0,0
23.06.2018 02:00:00 21,0 10,2 15,4 28,4 22,7 8 5 14 8 WNW 1018,6 6 0,0
23.06.2018 01:00:00 22,2 10,3 16,3 28,6 22,7 3 2 16 9 SSW 1018,9 60 0,0
23.06.2018 00:00:00 24,1 10,4 22,2 28,9 22,7 14 7 31 17 NNW 1018,5 60 0,0
22.06.2018 23:00:00 25,0 10,5 23,2 29,1 22,6 20 11 32 17 NW 1018,5 60 0,0
22.06.2018 22:00:00 26,0 10,6 24,7 29,2 22,6 21 12 37 20 NW 1017,6 60 0,0
22.06.2018 21:00:00 27,3 9,2 26,2 29,3 22,6 13 7 42 23 NW 1017,0 60 0,0
22.06.2018 20:00:00 28,5 12,0 29,6 29,3 22,6 28 15 54 29 NNW 1016,4 52 0,0
22.06.2018 19:00:00 29,6 12,9 30,5 29,3 22,6 37 20 70 38 NNW 1015,3 26 0,0
22.06.2018 18:00:00 29,0 13,6 30,5 29,1 22,6 38 21 72 39 NNW 1014,8 29 0,0
22.06.2018 17:00:00 28,9 14,3 31,6 28,8 22,6 35 19 65 35 NNW 1015,3 21 0,0
22.06.2018 16:00:00 29,8 15,1 32,7 28,2 22,5 41 22 74 40 NNW 1015,6 18 0,0
22.06.2018 15:00:00 29,6 15,0 36,8 27,8 22,5 42 23 71 39 NNW 1015,7 23 0,0
22.06.2018 14:00:00 29,2 15,3 36,8 27,4 22,5 40 22 64 35 NNW 1016,0 31 0,0
22.06.2018 13:00:00 27,7 16,6 34,0 27,1 22,5 22 12 54 29 NW 1017,2 36 0,0
22.06.2018 12:00:00 27,4 16,7 32,9 27,0 22,5 29 16 54 29 NNW 1017,5 35 0,0
22.06.2018 11:00:00 26,4 17,5 31,2 26,9 22,5 34 18 52 28 NW 1017,4 38 0,0
22.06.2018 10:00:00 26,1 17,7 30,9 26,9 22,4 31 17 48 26 NW 1017,4 50 0,0
22.06.2018 09:00:00 25,5 17,9 25,9 27,1 22,5 26 14 48 26 NW 1017,5 47 0,0
22.06.2018 08:00:00 24,9 18,1 24,6 27,2 22,4 22 12 40 22 NNW 1017,2 46 0,0
22.06.2018 07:00:00 24,6 18,1 23,3 27,4 22,4 27 14 44 24 NW 1017,1 34 0,0
22.06.2018 06:00:00 24,2 18,2 20,7 27,6 22,4 22 12 37 20 WNW 1016,5 41 0,0
22.06.2018 05:00:00 24,1 18,3 21,0 27,9 22,4 4 2 30 16 SW 1016,8 39 0,0
22.06.2018 04:00:00 25,2 18,9 24,3 28,0 22,3 19 10 42 23 WNW 1017,0 36 0,0
22.06.2018 03:00:00 26,0 19,2 25,1 28,2 22,4 25 13 41 22 NW 1016,8 34 0,0
22.06.2018 02:00:00 26,7 19,6 25,9 28,4 22,4 30 16 50 27 NW 1016,8 35 0,0
22.06.2018 01:00:00 27,2 19,8 25,9 28,7 22,3 23 12 39 21 NW 1017,0 38 0,0
22.06.2018 00:00:00 27,8 19,3 26,8 28,9 22,3 22 12 41 22 NW 1016,8 44 0,0
21.06.2018 23:00:00 28,4 19,1 27,3 29,0 22,3 22 12 37 20 NW 1016,5 44 0,0
21.06.2018 22:00:00 28,8 18,9 27,6 29,1 22,3 18 10 49 27 NW 1015,9 46 0,0
21.06.2018 21:00:00 30,4 17,8 29,3 29,1 22,3 17 9 33 18 NW 1015,7 57 0,0
21.06.2018 20:00:00 31,4 16,9 31,5 29,0 22,3 22 12 38 21 NNW 1015,5 51 0,0
21.06.2018 19:00:00 33,4 15,9 36,7 28,8 22,2 19 11 31 17 NNW 1014,7 44 0,0
21.06.2018 18:00:00 33,8 15,7 38,6 28,3 22,2 19 10 35 19 NNW 1015,1 60 0,0
21.06.2018 17:00:00 33,9 18,0 35,3 27,9 22,2 8 4 27 14 SSE 1015,4 19 0,0
21.06.2018 16:00:00 31,9 17,8 35,4 27,3 22,2 10 5 29 15 SE 1016,1 48 0,0
21.06.2018 15:00:00 33,1 18,1 39,8 26,8 22,2 15 8 28 15 SE 1016,2 38 0,0
21.06.2018 14:00:00 32,7 17,7 42,9 26,3 22,2 12 6 21 12 ESE 1016,5 60 0,0
21.06.2018 13:00:00 32,0 17,9 40,2 25,9 22,2 11 6 21 11 ESE 1017,1 60 0,0
21.06.2018 12:00:00 30,7 17,8 39,0 25,7 22,1 9 5 23 12 ENE 1017,6 58 0,0
21.06.2018 11:00:00 28,7 16,6 34,8 25,6 22,1 4 2 11 6 ESE 1017,8 20 0,0
21.06.2018 10:00:00 27,2 16,5 32,5 25,6 22,1 5 3 10 6 ESE 1018,0 51 0,0
21.06.2018 09:00:00 24,5 16,7 22,1 25,8 22,1 0 0 5 3 N 1018,2 39 0,0
21.06.2018 08:00:00 20,5 16,5 17,7 26,0 22,1 0 0 6 3 N 1018,0 37 0,0
21.06.2018 07:00:00 18,6 16,6 14,8 26,3 22,1 4 2 11 6 WSW 1017,9 33 0,0
21.06.2018 06:00:00 17,0 15,5 14,5 26,5 22,0 9 5 10 5 W 1017,8 33 0,0
21.06.2018 05:00:00 18,2 15,8 14,6 26,8 22,0 0 0 4 2 N 1017,8 36 0,0
21.06.2018 04:00:00 18,4 16,2 15,3 27,1 22,0 3 2 5 3 NNW 1018,0 40 0,0
21.06.2018 03:00:00 18,5 16,1 15,7 27,4 22,0 5 3 7 4 WSW 1018,4 37 0,0
21.06.2018 02:00:00 19,3 17,1 16,6 27,6 22,0 2 1 8 4 W 1018,6 43 0,0
21.06.2018 01:00:00 19,9 17,5 17,4 27,9 21,9 4 2 7 4 W 1018,8 39 0,0
21.06.2018 00:00:00 21,2 18,4 18,9 28,1 21,9 4 2 11 6 NNE 1018,7 35 0,0
20.06.2018 23:00:00 21,7 18,5 20,5 28,3 21,9 8 5 15 8 N 1018,7 47 0,0
20.06.2018 22:00:00 22,3 18,3 21,6 28,5 21,9 11 6 21 11 NE 1018,3 57 0,0
20.06.2018 21:00:00 24,3 17,8 24,3 28,5 21,9 14 8 19 10 NE 1017,7 60 0,0
20.06.2018 20:00:00 26,4 17,2 27,9 28,4 21,9 12 6 21 11 NE 1017,6 55 0,0
20.06.2018 19:00:00 27,3 17,5 31,6 28,2 21,9 14 7 26 14 ENE 1017,4 50 0,0
20.06.2018 18:00:00 28,8 16,4 33,8 27,8 21,8 14 8 27 15 E 1017,7 20 0,0
20.06.2018 17:00:00 29,3 15,4 34,4 27,3 21,8 19 11 31 17 E 1018,0 60 0,0
20.06.2018 16:00:00 29,5 16,3 37,0 26,8 21,9 19 10 31 17 E 1018,1 60 0,0
20.06.2018 15:00:00 29,7 17,2 37,9 26,3 21,9 19 11 30 16 E 1018,5 20 0,0
20.06.2018 14:00:00 29,4 16,2 38,0 25,7 21,8 18 10 31 17 E 1018,8 60 0,0
20.06.2018 13:00:00 29,7 16,5 37,4 25,3 21,8 20 11 30 16 ESE 1019,0 60 0,0
20.06.2018 12:00:00 29,7 16,1 34,9 25,1 21,8 19 10 29 16 ESE 1019,1 60 0,0
20.06.2018 11:00:00 28,9 16,1 34,9 25,0 21,8 19 11 29 16 ESE 1019,1 60 0,0
20.06.2018 10:00:00 27,5 16,5 33,1 25,0 21,8 7 4 13 7 E 1019,2 54 0,0
20.06.2018 09:00:00 24,5 16,2 22,9 25,1 21,7 5 3 10 5 NNE 1019,5 55 0,0
20.06.2018 08:00:00 21,5 16,7 17,5 25,4 21,8 2 1 6 4 SW 1019,3 20 0,0
20.06.2018 07:00:00 18,2 15,6 14,8 25,6 21,8 6 4 8 5 W 1019,0 58 0,0
20.06.2018 06:00:00 17,9 15,0 14,9 25,9 21,7 3 2 13 7 W 1019,0 60 0,0
20.06.2018 05:00:00 18,9 15,4 16,0 26,1 21,7 7 4 12 6 WSW 1018,9 60 0,0
20.06.2018 04:00:00 19,7 15,3 16,9 26,3 21,7 6 3 15 8 WSW 1019,0 60 0,0
20.06.2018 03:00:00 20,5 15,7 18,1 26,6 21,7 11 6 15 8 W 1019,2 60 0,0
20.06.2018 02:00:00 20,9 15,7 17,4 26,8 21,7 9 5 11 6 W 1019,5 60 0,0
20.06.2018 01:00:00 22,1 15,4 19,6 27,1 21,7 8 5 17 9 W 1019,6 60 0,0
20.06.2018 00:00:00 23,1 15,4 19,9 27,3 21,6 11 6 18 10 WSW 1019,4 60 0,0
19.06.2018 23:00:00 23,7 15,2 20,0 27,5 21,7 10 6 14 7 W 1019,4 60 0,0
19.06.2018 22:00:00 24,9 15,5 20,7 27,6 21,7 9 5 13 7 WSW 1019,0 18 0,0
19.06.2018 21:00:00 28,1 14,3 26,5 27,6 21,6 8 4 14 8 ESE 1018,6 60 0,0
19.06.2018 20:00:00 30,1 14,2 30,2 27,4 21,7 11 6 17 9 E 1018,6 60 0,0
19.06.2018 19:00:00 30,9 13,7 35,6 27,2 21,6 6 4 18 10 NNE 1018,6 60 0,0
19.06.2018 18:00:00 31,1 12,5 37,9 26,8 21,6 6 4 24 13 NNE 1019,0 60 0,0
19.06.2018 17:00:00 30,9 12,8 38,3 26,3 21,6 10 6 26 14 NNE 1019,2 57 0,0
19.06.2018 16:00:00 31,0 13,3 40,7 25,7 21,6 10 5 31 17 NNW 1019,6 60 0,0
19.06.2018 15:00:00 30,2 13,0 41,3 25,0 21,6 13 7 29 16 NNE 1019,9 60 0,0

tt = Température de l'air
td = dewpoint
tt 5cm = Température de l'air 5cm
tt -20cm = Température de l'air -20cm
tt -100cm = Température de l'air -100cm
ff = Vitesse du vent
fx = gusts
dd = Direction du vent
ppp = reduced air pressure
vv = visibility
rr = Quantités de précipitations

stations d'obs. à proximité